When you browse on this site, cookies collect data to enhance your experience and personalize the content and advertising you see.
Visit our Privacy Policy to learn more. By continuing to use the site, you agree to this use of cookies and data.
  • In Austria
  • List of Countries
  • For 7 days
  • Water Temperature
  • Weather Map
  • News
  • Weather Widgets
  • user-avatar
    Login

    Hourly Weather Trumbull

    Today, 15 September, Sunday

    Time Temperature Precipitation Wind Pressure Humidity
    00:00 +21°C° 0 mm 3 mps 760 mmHg 89%
    01:00 +21°C° 0 mm 2 mps 760 mmHg 90%
    02:00 +20°C° 0 mm 2 mps 759 mmHg 91%
    03:00 +20°C° 0 mm 2 mps 759 mmHg 92%
    04:00 +20°C° 0 mm 1 mps 759 mmHg 93%
    05:00 +21°C° 0 mm 1 mps 759 mmHg 91%
    06:00 +21°C° 0 mm 1 mps 759 mmHg 90%
    07:00 +21°C° 0 mm 1 mps 760 mmHg 88%
    08:00 +23°C° 0 mm 1 mps 760 mmHg 78%
    09:00 +25°C° 0 mm 1 mps 759 mmHg 69%
    10:00 +25°C° 0 mm 0 mps 759 mmHg 59%
    11:00 +27°C° 0 mm 1 mps 759 mmHg 54%
    12:00 +28°C° 0 mm 1 mps 759 mmHg 49%
    13:00 +28°C° 0 mm 2 mps 758 mmHg 45%
    14:00 +28°C° 0 mm 2 mps 758 mmHg 44%
    15:00 +28°C° 0 mm 2 mps 757 mmHg 44%
    16:00 +28°C° 0 mm 2 mps 757 mmHg 44%
    17:00 +26°C° 0 mm 1 mps 757 mmHg 49%
    18:00 +24°C° 0 mm 1 mps 757 mmHg 54%
    19:00 +23°C° 0 mm 1 mps 757 mmHg 59%
    20:00 +22°C° 0 mm 1 mps 757 mmHg 60%
    21:00 +22°C° 0 mm 1 mps 757 mmHg 61%
    22:00 +21°C° 0 mm 1 mps 757 mmHg 62%
    23:00 +21°C° 0 mm 1 mps 757 mmHg 63%

    Tomorrow, 16 September, Monday

    Time Temperature Precipitation Wind Pressure Humidity
    00:00 +21°C° 0 mm 1 mps 757 mmHg 64%
    01:00 +21°C° 0 mm 1 mps 757 mmHg 65%
    02:00 +20°C° 0 mm 1 mps 757 mmHg 67%
    03:00 +20°C° 0 mm 1 mps 756 mmHg 70%
    04:00 +19°C° 0 mm 1 mps 756 mmHg 72%
    05:00 +20°C° 0 mm 1 mps 756 mmHg 71%
    06:00 +21°C° 0 mm 1 mps 757 mmHg 70%
    07:00 +21°C° 0 mm 1 mps 757 mmHg 69%
    08:00 +22°C° 0 mm 1 mps 757 mmHg 67%
    09:00 +23°C° 0 mm 1 mps 756 mmHg 65%
    10:00 +24°C° 0 mm 1 mps 756 mmHg 63%
    11:00 +24°C° 0 mm 1 mps 756 mmHg 64%
    12:00 +24°C° 0 mm 1 mps 756 mmHg 64%
    13:00 +24°C° 0 mm 1 mps 755 mmHg 65%
    14:00 +24°C° 0.1 mm 2 mps 755 mmHg 70%
    15:00 +23°C° 0.1 mm 2 mps 755 mmHg 76%
    16:00 +21°C° 0.1 mm 2 mps 754 mmHg 81%
    17:00 +21°C° 0 mm 2 mps 755 mmHg 82%
    18:00 +21°C° 0 mm 1 mps 755 mmHg 84%
    19:00 +21°C° 0 mm 1 mps 755 mmHg 85%
    20:00 +19°C° 0 mm 2 mps 756 mmHg 83%
    21:00 +19°C° 0 mm 2 mps 756 mmHg 81%
    22:00 +18°C° 0 mm 2 mps 756 mmHg 79%
    23:00 +17°C° 0 mm 3 mps 757 mmHg 77%

    Day after tomorrow, 17 September, Tuesday

    Time Temperature Precipitation Wind Pressure Humidity
    00:00 +15°C° 0 mm 4 mps 757 mmHg 76%
    01:00 +15°C° 0 mm 4 mps 757 mmHg 75%
    02:00 +14°C° 0 mm 4 mps 757 mmHg 75%
    03:00 +13°C° 0 mm 4 mps 757 mmHg 75%
    04:00 +13°C° 0 mm 4 mps 757 mmHg 74%
    05:00 +13°C° 0 mm 4 mps 758 mmHg 72%
    06:00 +13°C° 0 mm 4 mps 759 mmHg 69%
    07:00 +13°C° 0 mm 4 mps 759 mmHg 67%
    08:00 +15°C° 0 mm 4 mps 759 mmHg 60%
    09:00 +18°C° 0 mm 4 mps 759 mmHg 54%
    10:00 +20°C° 0 mm 4 mps 759 mmHg 47%
    11:00 +21°C° 0 mm 3 mps 759 mmHg 44%
    12:00 +22°C° 0 mm 3 mps 759 mmHg 42%
    13:00 +24°C° 0 mm 2 mps 758 mmHg 39%
    14:00 +24°C° 0 mm 2 mps 758 mmHg 41%
    15:00 +23°C° 0 mm 2 mps 758 mmHg 42%
    16:00 +23°C° 0 mm 2 mps 758 mmHg 43%
    17:00 +21°C° 0 mm 2 mps 758 mmHg 52%
    18:00 +19°C° 0 mm 2 mps 759 mmHg 61%
    19:00 +17°C° 0 mm 2 mps 759 mmHg 69%
    20:00 +17°C° 0 mm 2 mps 760 mmHg 72%
    21:00 +16°C° 0 mm 2 mps 760 mmHg 75%
    22:00 +16°C° 0 mm 2 mps 760 mmHg 78%
    23:00 +15°C° 0 mm 2 mps 760 mmHg 79%

    18 September, Wednesday

    Time Temperature Precipitation Wind Pressure Humidity
    00:00 +15°C° 0 mm 2 mps 760 mmHg 81%
    01:00 +14°C° 0 mm 1 mps 760 mmHg 82%
    02:00 +14°C° 0 mm 2 mps 760 mmHg 83%
    03:00 +13°C° 0 mm 2 mps 760 mmHg 83%
    04:00 +13°C° 0 mm 2 mps 761 mmHg 84%
    05:00 +13°C° 0 mm 2 mps 761 mmHg 81%
    06:00 +14°C° 0 mm 2 mps 761 mmHg 78%
    07:00 +14°C° 0 mm 2 mps 761 mmHg 75%
    08:00 +16°C° 0 mm 2 mps 761 mmHg 68%
    09:00 +18°C° 0 mm 2 mps 762 mmHg 61%
    10:00 +20°C° 0 mm 2 mps 762 mmHg 54%
    11:00 +20°C° 0 mm 2 mps 762 mmHg 52%
    12:00 +22°C° 0 mm 1 mps 761 mmHg 50%
    13:00 +22°C° 0 mm 1 mps 761 mmHg 49%
    14:00 +22°C° 0 mm 1 mps 761 mmHg 49%
    15:00 +21°C° 0 mm 2 mps 761 mmHg 50%
    16:00 +21°C° 0 mm 2 mps 761 mmHg 50%
    17:00 +20°C° 0 mm 2 mps 761 mmHg 56%
    18:00 +18°C° 0 mm 2 mps 761 mmHg 62%
    19:00 +17°C° 0 mm 3 mps 762 mmHg 69%
    20:00 +16°C° 0 mm 3 mps 762 mmHg 71%
    21:00 +16°C° 0 mm 3 mps 763 mmHg 74%
    22:00 +14°C° 0 mm 3 mps 763 mmHg 77%
    23:00 +13°C° 0 mm 3 mps 763 mmHg 76%

    19 September, Thursday

    Time Temperature Precipitation Wind Pressure Humidity
    00:00 +13°C° 0 mm 2 mps 763 mmHg 76%
    01:00 +12°C° 0 mm 2 mps 763 mmHg 76%
    02:00 +12°C° 0 mm 2 mps 763 mmHg 75%
    03:00 +12°C° 0 mm 2 mps 763 mmHg 73%
    04:00 +10°C° 0 mm 2 mps 763 mmHg 72%
    05:00 +12°C° 0 mm 2 mps 763 mmHg 70%
    06:00 +12°C° 0 mm 2 mps 763 mmHg 68%
    07:00 +13°C° 0 mm 2 mps 763 mmHg 67%
    08:00 +15°C° 0 mm 2 mps 763 mmHg 61%
    09:00 +18°C° 0 mm 2 mps 763 mmHg 54%
    10:00 +21°C° 0 mm 1 mps 763 mmHg 48%
    11:00 +22°C° 0 mm 1 mps 763 mmHg 47%
    12:00 +23°C° 0 mm 1 mps 763 mmHg 45%
    13:00 +24°C° 0 mm 1 mps 762 mmHg 44%
    14:00 +23°C° 0 mm 2 mps 762 mmHg 45%
    15:00 +23°C° 0 mm 2 mps 762 mmHg 46%
    16:00 +21°C° 0 mm 2 mps 762 mmHg 47%
    17:00 +20°C° 0 mm 2 mps 762 mmHg 52%
    18:00 +18°C° 0 mm 2 mps 762 mmHg 58%
    19:00 +17°C° 0 mm 3 mps 762 mmHg 63%
    20:00 +16°C° 0 mm 2 mps 762 mmHg 66%
    21:00 +16°C° 0 mm 2 mps 762 mmHg 68%
    22:00 +15°C° 0 mm 2 mps 762 mmHg 71%
    23:00 +15°C° 0 mm 2 mps 762 mmHg 73%

    20 September, Friday

    Time Temperature Precipitation Wind Pressure Humidity
    00:00 +15°C° 0 mm 2 mps 762 mmHg 75%
    01:00 +15°C° 0 mm 2 mps 762 mmHg 76%
    02:00 +15°C° 0 mm 2 mps 762 mmHg 77%
    03:00 +14°C° 0 mm 2 mps 762 mmHg 77%
    04:00 +14°C° 0 mm 2 mps 762 mmHg 78%
    05:00 +15°C° 0 mm 2 mps 762 mmHg 77%
    06:00 +15°C° 0 mm 2 mps 762 mmHg 76%
    07:00 +16°C° 0 mm 2 mps 761 mmHg 74%
    08:00 +18°C° 0 mm 2 mps 762 mmHg 65%
    09:00 +21°C° 0 mm 2 mps 762 mmHg 57%
    10:00 +24°C° 0 mm 2 mps 762 mmHg 48%
    11:00 +25°C° 0 mm 2 mps 761 mmHg 45%
    12:00 +27°C° 0 mm 2 mps 760 mmHg 42%
    13:00 +28°C° 0 mm 2 mps 760 mmHg 38%
    14:00 +28°C° 0 mm 2 mps 759 mmHg 41%
    15:00 +27°C° 0 mm 2 mps 759 mmHg 43%
    16:00 +27°C° 0 mm 2 mps 759 mmHg 46%
    17:00 +26°C° 0 mm 2 mps 759 mmHg 52%
    18:00 +24°C° 0 mm 2 mps 759 mmHg 58%
    19:00 +22°C° 0 mm 1 mps 760 mmHg 64%
    20:00 +20°C° 0 mm 2 mps 760 mmHg 65%
    21:00 +20°C° 0 mm 2 mps 759 mmHg 67%
    22:00 +20°C° 0 mm 2 mps 759 mmHg 68%
    23:00 +19°C° 0 mm 2 mps 759 mmHg 70%
    Show more